Crestview, FL

10:01 PM CST on January 23, 2017 (GMT -0600)
Sikes

Weather History for KCEW - December, 2013

Change the Weather History Date:

Sunday, December 22, 2013

  Actual Average Record
Temperature  
Mean Temperature 66 °F -  
Max Temperature 77 °F 58 °F 77 °F (1992)
Min Temperature 55 °F 38 °F 19 °F (1976)
Cooling Degree Days 1    
Growing Degree Days 16 (Base 50)    
Moisture  
Dew Point 65 °F    
Average Humidity 89    
Maximum Humidity 94    
Minimum Humidity 82    
Precipitation  
Precipitation 0.47 in - - ()
Sea Level Pressure  
Sea Level Pressure 30.01 in    
Wind  
Wind Speed 13 mph (SSW)    
Max Wind Speed 22 mph    
Max Gust Speed 26 mph    
Visibility 6 miles    
Events Rain    
Averages and records for this station are not official NWS values.
T = Trace of Precipitation, MM = Missing Value Source: NWS Daily Summary

Daily Weather History Graph

Daily Weather History Graph

Search for Another Location

Airport or City:

Trip Planner

Search our weather history database for the weather conditions in past years. The results will help you decide how hot, cold, wet, or windy it might be!

Date:

Astronomy

Dec. 22, 2013 Rise Set
Actual Time 6:40 AM CST 4:49 PM CST
Civil Twilight 6:13 AM CST 5:16 PM CST
Nautical Twilight 5:43 AM CST 5:46 PM CST
Astronomical Twilight 5:13 AM CST 6:15 PM CST
Moon 9:42 PM CST (12/22) 9:53 AM CST (12/22)
Length of Visible Light 11h 02m
Length of Day
10h 09m
Waning Gibbous, 76% of the Moon is Illuminated
Dec 22
Waning Gibbous
Dec 25
Last Quarter
Jan 1
New
Jan 7
First Quarter
Jan 15
Full

Hourly Weather History & Observations

Time (CST) Temp. Dew Point Humidity Pressure Visibility Wind Dir Wind Speed Gust Speed Precip Events Conditions
12:44 AM 73.9 °F 70.0 °F 87% 29.97 in 7.0 mi South 13.8 mph 23.0 mph 0.00 in Rain Light Rain
12:51 AM 73.4 °F 69.8 °F 88% 29.97 in 8.0 mi South 12.7 mph - 0.00 in Rain Light Rain
12:53 AM 73.9 °F 70.0 °F 87% 29.97 in 8.0 mi South 16.1 mph 21.9 mph 0.00 in Rain Light Rain
1:45 AM 73.9 °F 70.0 °F 87% 29.96 in 9.0 mi South 12.7 mph 20.7 mph 0.00 in   Overcast
1:53 AM 73.9 °F 70.0 °F 87% 29.95 in 8.0 mi SSE 12.7 mph 21.9 mph 0.00 in Rain Light Rain
2:03 AM 73.9 °F 70.0 °F 87% 29.96 in 8.0 mi South 12.7 mph 18.4 mph 0.00 in Rain Light Rain
2:53 AM 73.9 °F 70.0 °F 87% 29.94 in 8.0 mi South 12.7 mph 24.2 mph 0.00 in   Overcast
3:22 AM 73.9 °F 70.0 °F 87% 29.95 in 8.0 mi SSE 11.5 mph 23.0 mph N/A   Overcast
3:53 AM 73.9 °F 70.0 °F 87% 29.94 in 8.0 mi South 12.7 mph 26.5 mph N/A   Overcast
4:29 AM 73.9 °F 70.0 °F 87% 29.95 in 8.0 mi South 15.0 mph 21.9 mph N/A   Overcast
4:53 AM 73.9 °F 70.0 °F 87% 29.94 in 8.0 mi South 16.1 mph 25.3 mph N/A   Overcast
5:29 AM 73.9 °F 70.0 °F 87% 29.95 in 8.0 mi South 16.1 mph 24.2 mph N/A   Overcast
5:40 AM 73.9 °F 70.0 °F 87% 29.95 in 8.0 mi South 12.7 mph 25.3 mph N/A   Overcast
5:53 AM 73.9 °F 70.0 °F 87% 29.94 in 8.0 mi South 13.8 mph 23.0 mph N/A   Overcast
6:15 AM 73.9 °F 70.0 °F 87% 29.95 in 8.0 mi South 12.7 mph 23.0 mph N/A   Overcast
6:25 AM 73.9 °F 70.0 °F 87% 29.96 in 7.0 mi South 11.5 mph 24.2 mph N/A   Overcast
6:53 AM 73.9 °F 70.0 °F 87% 29.97 in 7.0 mi South 17.3 mph 26.5 mph N/A   Overcast
7:53 AM 75.0 °F 71.1 °F 87% 29.99 in 6.0 mi South 16.1 mph 23.0 mph N/A   Overcast
8:53 AM 75.0 °F 71.1 °F 87% 30.00 in 6.0 mi South 12.7 mph 20.7 mph N/A   Overcast
9:53 AM 75.0 °F 71.1 °F 87% 30.01 in 6.0 mi South 13.8 mph 23.0 mph 0.00 in   Overcast
10:25 AM 77.0 °F 71.1 °F 82% 30.01 in 7.0 mi South 13.8 mph 23.0 mph N/A   Overcast
10:42 AM 75.9 °F 71.1 °F 85% 30.01 in 6.0 mi South 16.1 mph 23.0 mph 0.00 in Rain Light Rain
10:53 AM 75.9 °F 71.1 °F 85% 30.00 in 7.0 mi South 16.1 mph 24.2 mph 0.00 in   Overcast
11:16 AM 77.0 °F 71.1 °F 82% 30.00 in 7.0 mi South 13.8 mph 25.3 mph N/A   Overcast
11:53 AM 77.0 °F 71.1 °F 82% 29.99 in 7.0 mi South 13.8 mph 23.0 mph N/A   Overcast
12:53 PM 75.9 °F 72.0 °F 87% 29.96 in 6.0 mi South 12.7 mph 24.2 mph 0.00 in Rain Light Rain
1:53 PM 75.9 °F 72.0 °F 87% 29.95 in 7.0 mi South 13.8 mph 23.0 mph 0.00 in   Overcast
2:53 PM 75.9 °F 71.1 °F 85% 29.95 in 7.0 mi South 17.3 mph 23.0 mph 0.00 in Rain Light Rain
3:53 PM 75.0 °F 71.1 °F 87% 29.96 in 4.0 mi South 9.2 mph 18.4 mph 0.00 in Rain Light Rain
4:53 PM 73.9 °F 71.1 °F 91% 29.96 in 7.0 mi South 12.7 mph 19.6 mph 0.00 in   Overcast
5:53 PM 73.9 °F 71.1 °F 91% 29.97 in 3.0 mi South 12.7 mph 23.0 mph 0.05 in Rain Light Rain
6:29 PM 70.0 °F 66.9 °F 90% 30.00 in 6.0 mi NW 20.7 mph - 0.01 in Rain Light Rain
6:40 PM 63.0 °F 61.0 °F 93% 30.02 in 3.0 mi NW 20.7 mph 26.5 mph 0.08 in Rain Light Rain
6:43 PM 63.0 °F 60.1 °F 90% 30.03 in 2.5 mi NW 21.9 mph 26.5 mph 0.09 in Rain Heavy Rain
6:49 PM 62.6 °F 60.8 °F 94% 30.04 in 3.0 mi NW 19.6 mph 26.5 mph 0.12 in Rain Heavy Rain
6:50 PM 62.1 °F 60.1 °F 93% 30.03 in 4.0 mi NNW 17.3 mph 25.3 mph 0.12 in Rain Rain
6:58 PM 62.1 °F 59.0 °F 90% 30.05 in 6.0 mi NW 17.3 mph 25.3 mph 0.01 in Rain Rain
7:38 PM 61.0 °F 57.9 °F 90% 30.07 in 5.0 mi NW 10.4 mph - 0.05 in Rain Light Rain
7:53 PM 61.0 °F 57.9 °F 90% 30.06 in 10.0 mi NNW 9.2 mph - 0.05 in Rain Light Rain
8:26 PM 60.1 °F 57.9 °F 93% 30.06 in 10.0 mi North 5.8 mph - 0.00 in   Overcast
8:33 PM 60.1 °F 57.9 °F 93% 30.06 in 10.0 mi North 4.6 mph - 0.00 in   Overcast
8:53 PM 60.1 °F 57.0 °F 90% 30.07 in 10.0 mi North 8.1 mph - 0.00 in   Overcast
9:07 PM 60.1 °F 57.0 °F 90% 30.09 in 10.0 mi NNW 3.5 mph - N/A   Overcast
9:53 PM 59.0 °F 55.9 °F 90% 30.08 in 10.0 mi North 3.5 mph - 0.00 in Rain Light Rain
9:59 PM 59.0 °F 55.9 °F 90% 30.11 in 1.8 mi Calm Calm - 0.05 in Rain Rain
10:18 PM 57.0 °F 55.0 °F 93% 30.08 in 3.0 mi North 8.1 mph - 0.15 in Rain Rain
10:25 PM 57.0 °F 55.0 °F 93% 30.10 in 4.0 mi NNW 12.7 mph - 0.16 in Rain Heavy Rain
10:44 PM 55.9 °F 54.0 °F 93% 30.10 in 2.5 mi North 5.8 mph - 0.22 in Rain Heavy Rain
10:51 PM 55.4 °F 53.6 °F 94% 30.11 in 3.0 mi NNW 6.9 mph - 0.24 in Rain Heavy Rain
10:53 PM 55.9 °F 54.0 °F 93% 30.11 in 3.0 mi NW 9.2 mph - 0.24 in Rain Rain
11:53 PM 55.0 °F 53.1 °F 93% 30.09 in 7.0 mi NNW 8.1 mph - 0.01 in Rain Light Rain